Wind_Speed
17 17 17 17 17 17 18 18 18 18 18 19 19 19 19 18 18 18 18 18 18 18 18 18 18 18 19 19 19 19 20 20 21 21 20 21 21 21
19 18 18 19 19 19 19 19 20 20 19 20 20 20 20 20 20 19 20 20 19 19 19 20 20 19 19 19 19 20 21 21 21 22 22 22 21 22
20 20 20 20 20 20 20 20 20 20 20 20 21 21 21 21 21 21 21 21 21 21 21 21 21 21 20 21 21 21 21 22 22 22 22 22 22 22
21 21 21 21 22 22 22 21 21 21 21 21 22 22 22 22 23 23 22 22 22 22 21 21 21 21 21 21 21 22 22 22 23 22 23 23 23 23
22 22 22 22 22 22 22 22 23 23 23 22 22 23 23 23 24 24 23 23 22 22 22 21 21 21 22 22 22 22 22 23 23 23 23 23 23 24
22 22 22 22 22 22 23 23 23 23 24 23 23 23 23 23 23 24 24 24 23 23 23 22 22 22 22 22 23 23 22 23 24 24 25 25 25 25
22 22 23 22 23 23 23 23 23 23 24 24 24 24 24 23 23 23 24 24 24 24 24 24 23 23 23 22 23 23 23 23 24 25 26 26 27 27
23 23 23 23 23 23 24 24 23 24 24 24 24 24 23 23 23 23 23 24 25 25 25 25 25 24 23 23 23 23 23 23 24 25 25 26 26 27
23 23 23 23 23 23 23 23 24 25 24 24 24 24 24 24 24 24 24 24 25 25 26 25 26 25 24 24 25 25 25 24 24 25 25 25 26 26
23 23 23 23 23 24 23 24 24 24 25 25 24 25 25 24 25 25 25 25 25 25 25 26 26 26 25 26 25 25 25 26 25 25 25 25 26 26
24 24 24 23 23 24 23 23 24 25 26 26 25 25 25 25 26 26 25 25 25 25 25 26 26 26 26 25 26 26 25 26 26 25 25 26 26 27
25 25 24 24 24 24 24 24 25 25 26 26 26 25 26 26 26 26 25 25 25 25 25 26 26 26 26 26 27 27 26 26 27 26 26 26 27 27
25 25 25 25 25 25 25 25 26 26 26 26 26 26 26 27 26 25 25 25 25 24 25 26 26 26 26 26 27 27 26 27 27 27 28 27 28 28
26 27 27 26 26 26 26 26 26 26 26 25 25 26 27 26 25 25 26 26 26 26 26 27 27 27 27 27 27 27 27 28 28 29 29 29 28 28
27 27 28 28 27 27 27 27 26 25 25 25 26 26 26 26 26 26 26 26 27 27 28 28 28 28 27 28 28 28 29 29 29 29 29 29 29 29
28 27 28 28 28 28 28 28 28 27 27 27 27 27 27 27 27 27 27 27 27 28 28 28 28 28 28 28 29 28 29 29 29 30 29 29 29 29
27 27 28 28 28 29 30 29 29 29 28 28 27 27 26 26 26 27 27 27 28 28 28 29 29 28 28 27 28 28 28 29 29 30 30 29 29 30
28 28 29 29 30 30 30 30 30 30 29 28 28 28 28 27 27 27 27 27 27 28 28 28 27 27 28 27 28 28 28 29 29 30 30 30 30 30
29 29 29 29 29 30 31 31 30 30 29 29 28 28 28 28 28 28 27 27 27 26 26 27 27 27 27 27 27 28 28 29 29 29 30 30 29 30
30 29 29 29 29 30 31 30 30 30 30 29 29 28 28 28 28 27 27 27 27 26 26 26 26 27 27 27 27 27 29 29 29 29 29 29 29 30
30 31 30 30 30 31 30 30 30 30 30 29 29 28 28 28 28 28 27 27 27 26 26 26 27 27 27 27 27 27 27 29 29 29 28 28 28 29
29 29 29 29 29 28 28 29 29 29 28 28 28 28 28 27 28 28 28 28 28 28 28 28 28 28 27 27 27 27 27 27 28 28 28 28 28 28
28 28 28 27 27 27 27 27 27 27 27 27 27 27 27 27 28 28 28 28 28 28 29 28 28 28 28 27 26 26 26 27 27 28 28 28 28 28
Wind_Direction
289 288 287 287 285 284 282 280 278 275 275 277 278 278 279 279 281 282 281 279 281 283 281 279 278 278 279 275 270 269 270 268 266 265 266 267 266 265
288 289 287 286 285 284 282 281 280 277 275 276 277 278 278 279 280 282 282 280 280 282 282 280 276 276 277 272 270 269 268 267 267 266 267 267 265 263
285 287 288 286 284 284 283 283 282 281 278 276 276 277 279 279 279 280 282 281 280 281 280 280 279 277 275 273 271 271 269 267 266 268 268 268 266 264
285 285 286 286 284 283 283 284 284 283 281 278 277 277 278 278 279 279 280 280 281 281 280 279 279 278 275 273 272 272 270 268 267 267 267 268 268 266
284 284 284 285 283 283 283 284 283 283 282 280 278 277 277 277 278 278 278 279 279 280 280 279 277 277 277 275 273 272 270 269 269 268 267 267 269 268
282 281 283 284 284 284 283 283 283 282 281 280 279 277 276 277 278 277 277 277 278 280 281 280 279 277 276 275 274 273 273 271 270 270 270 268 268 269
281 281 282 282 284 285 283 283 283 282 281 280 280 278 278 279 280 279 277 276 277 278 279 279 279 279 278 276 276 276 277 275 271 270 271 271 272 271
283 282 282 282 284 285 283 282 282 282 280 279 280 279 279 279 280 281 278 276 277 276 277 278 277 277 276 274 276 276 277 277 275 273 272 272 271 271
282 282 283 282 282 284 282 280 281 281 280 279 280 280 279 278 279 280 280 279 278 276 275 277 277 275 275 275 274 274 275 276 276 275 274 273 272 272
282 283 282 281 282 283 282 281 281 281 281 281 280 280 279 278 279 280 280 279 280 278 277 277 276 275 275 277 276 276 275 276 276 276 276 275 275 275
280 283 281 281 283 284 283 282 282 283 282 283 281 280 280 279 279 279 279 278 277 277 278 278 278 277 276 276 277 277 275 275 276 277 278 277 277 276
280 281 281 280 281 283 283 284 284 284 283 281 280 281 281 280 279 278 278 277 278 278 278 279 278 277 276 276 277 276 275 275 276 277 278 278 278 277
277 279 280 280 279 280 281 282 284 284 282 281 282 282 281 282 281 278 277 278 279 279 278 279 279 278 277 276 275 275 274 275 275 276 277 278 278 278
277 278 278 277 278 279 280 282 283 284 283 282 283 283 282 281 281 280 280 280 280 280 277 278 279 279 278 277 275 274 274 275 276 278 278 278 278 279
277 277 277 277 278 279 281 282 283 284 285 285 285 284 282 281 281 281 281 281 281 279 278 278 279 279 279 277 276 275 274 275 277 278 278 279 278 279
276 277 278 278 279 280 281 283 283 283 283 284 285 285 283 282 281 280 280 281 281 281 280 279 279 279 279 278 277 276 276 276 276 277 278 279 280 279
276 277 278 278 279 279 281 282 282 282 282 283 284 285 285 283 281 280 281 281 281 282 281 279 280 280 279 278 278 277 277 277 276 277 278 279 279 279
275 275 276 277 278 279 280 280 281 281 281 282 283 283 283 282 282 282 284 284 283 282 282 281 280 280 278 277 278 278 277 277 278 279 280 280 279 277
276 275 276 277 278 278 278 279 280 281 282 281 282 282 282 282 281 282 284 285 284 284 283 282 281 282 281 279 279 279 278 279 279 280 282 282 281 279
275 275 276 277 279 279 278 277 277 279 280 281 280 281 280 280 281 281 282 283 283 284 284 284 283 282 283 282 280 278 279 280 280 281 282 282 282 282
275 276 276 277 279 280 278 277 277 278 280 279 278 279 280 279 280 281 282 283 283 284 284 284 284 284 283 281 280 279 279 281 281 282 283 283 283 284
276 276 276 277 278 278 278 278 278 278 279 278 277 279 281 281 281 280 281 282 283 283 283 283 283 284 284 282 280 280 280 281 281 282 282 283 284 285
274 275 276 276 277 278 279 280 280 279 279 278 278 278 279 280 281 281 281 282 283 284 283 283 283 283 283 282 281 280 280 281 282 282 282 283 285 284
Height
5833 5832 5831 5830 5829 5828 5827 5827 5827 5827 5826 5825 5825 5824 5823 5823 5823 5823 5822 5822 5821 5820 5819 5818 5818 5817 5816 5815 5815 5816 5816 5816 5816 5817 5817 5817 5817 5818
5828 5827 5826 5825 5824 5823 5822 5822 5821 5821 5821 5821 5819 5819 5818 5818 5818 5817 5817 5816 5815 5815 5814 5813 5813 5812 5811 5810 5810 5810 5810 5810 5810 5811 5811 5811 5812 5812
5823 5822 5821 5820 5819 5817 5816 5816 5815 5815 5815 5815 5814 5813 5812 5812 5812 5811 5811 5810 5810 5809 5809 5808 5807 5807 5806 5805 5805 5805 5805 5805 5805 5805 5805 5805 5806 5806
5817 5816 5815 5814 5813 5812 5811 5810 5809 5809 5809 5809 5808 5807 5806 5806 5806 5805 5805 5805 5804 5803 5803 5802 5801 5801 5800 5800 5799 5799 5799 5799 5799 5799 5799 5799 5799 5799
5811 5810 5809 5808 5807 5806 5805 5804 5803 5802 5802 5801 5801 5801 5800 5800 5799 5799 5799 5798 5798 5797 5797 5796 5795 5795 5794 5794 5793 5793 5793 5793 5792 5793 5793 5793 5793 5792
5805 5804 5803 5802 5801 5800 5799 5797 5796 5796 5795 5794 5794 5794 5793 5793 5792 5792 5792 5792 5792 5791 5790 5790 5789 5789 5788 5787 5787 5786 5786 5786 5786 5786 5786 5786 5786 5785
5798 5797 5796 5795 5794 5793 5792 5791 5790 5789 5788 5787 5787 5786 5786 5786 5786 5785 5785 5785 5785 5784 5784 5783 5783 5782 5781 5781 5780 5780 5779 5779 5779 5778 5778 5778 5778 5777
5791 5790 5789 5788 5787 5786 5785 5784 5783 5782 5781 5780 5780 5779 5779 5779 5779 5778 5778 5778 5778 5778 5777 5777 5776 5775 5774 5774 5773 5773 5773 5772 5771 5771 5770 5770 5769 5769
5785 5784 5783 5782 5781 5780 5778 5777 5776 5775 5774 5773 5773 5772 5772 5772 5772 5771 5770 5770 5770 5770 5770 5769 5768 5767 5767 5766 5766 5766 5765 5765 5764 5763 5762 5762 5761 5761
5778 5777 5776 5775 5775 5773 5772 5771 5770 5769 5768 5767 5766 5765 5765 5765 5764 5764 5763 5763 5763 5762 5761 5761 5760 5760 5759 5759 5758 5758 5758 5757 5756 5755 5754 5754 5753 5753
5771 5770 5769 5769 5768 5767 5766 5764 5763 5762 5761 5760 5759 5758 5757 5757 5757 5756 5755 5755 5755 5754 5753 5753 5753 5752 5752 5751 5750 5750 5749 5749 5748 5747 5746 5745 5744 5744
5764 5763 5763 5762 5761 5760 5759 5758 5757 5755 5754 5753 5752 5751 5750 5749 5749 5748 5747 5747 5747 5747 5746 5745 5745 5744 5744 5743 5742 5741 5741 5740 5740 5739 5738 5737 5736 5735
5757 5756 5755 5755 5754 5753 5752 5751 5750 5748 5747 5746 5744 5743 5742 5742 5741 5740 5740 5739 5739 5739 5738 5737 5736 5736 5735 5735 5734 5733 5732 5732 5731 5731 5730 5728 5727 5727
5749 5749 5748 5747 5747 5746 5745 5744 5742 5741 5740 5738 5737 5736 5735 5734 5733 5732 5732 5731 5731 5731 5730 5729 5728 5727 5727 5726 5726 5725 5724 5723 5723 5722 5721 5720 5719 5718
5741 5741 5740 5739 5739 5738 5737 5736 5735 5734 5733 5731 5730 5728 5727 5726 5725 5725 5724 5724 5723 5722 5721 5720 5720 5719 5718 5718 5717 5716 5715 5715 5714 5713 5712 5711 5710 5709
5733 5732 5732 5731 5731 5730 5729 5728 5727 5726 5725 5724 5722 5721 5719 5718 5718 5717 5716 5716 5715 5714 5713 5712 5711 5710 5710 5709 5708 5708 5707 5706 5705 5704 5703 5702 5701 5700
5724 5724 5723 5723 5723 5722 5721 5720 5719 5717 5716 5715 5714 5713 5711 5710 5709 5708 5708 5707 5707 5705 5704 5703 5702 5701 5701 5700 5699 5698 5697 5697 5696 5695 5694 5693 5692 5691
5716 5715 5715 5714 5714 5713 5712 5711 5709 5708 5707 5706 5705 5704 5703 5702 5701 5700 5699 5698 5698 5697 5695 5694 5693 5693 5692 5691 5691 5689 5688 5688 5687 5686 5685 5684 5683 5681
5707 5706 5706 5705 5705 5704 5703 5702 5701 5700 5698 5698 5697 5696 5695 5694 5693 5692 5691 5690 5689 5689 5687 5686 5684 5684 5683 5683 5682 5680 5679 5679 5678 5677 5675 5674 5673 5672
5697 5697 5697 5696 5695 5694 5693 5692 5692 5691 5690 5689 5688 5687 5686 5685 5684 5684 5683 5682 5681 5680 5679 5678 5676 5675 5675 5674 5674 5673 5671 5670 5669 5668 5666 5665 5664 5663
5687 5687 5687 5686 5686 5685 5684 5683 5682 5681 5680 5680 5679 5678 5677 5677 5676 5675 5674 5673 5673 5672 5671 5670 5668 5667 5666 5665 5665 5664 5662 5661 5660 5659 5658 5656 5655 5654
5678 5678 5677 5677 5676 5675 5674 5674 5673 5672 5671 5670 5670 5669 5669 5668 5667 5666 5666 5665 5664 5664 5663 5662 5660 5659 5657 5656 5656 5655 5654 5652 5651 5650 5649 5648 5646 5645
5668 5668 5668 5667 5667 5666 5665 5665 5664 5663 5662 5661 5661 5660 5660 5659 5659 5658 5657 5656 5655 5654 5654 5653 5652 5650 5649 5648 5647 5646 5645 5644 5643 5641 5640 5639 5638 5636